Regional Weather Roundup
Issued by NWS

Home | Current Version | Previous Version | Text Only | Print | Product List | Glossary On
Versions: 1 2 3 4 5 6 7 8 9 10 11 12 13 14 15 16 17 18 19 20 21 22 23 24 25 26 27 28 29 30 31 32 33 34 35 36 37 38 39 40 41 42 43 44 45 46 47 48 49 50
000
ASUS42 KKEY 020410
RWRKEY

FLORIDA REGIONAL WEATHER ROUNDUP FOR THE FLORIDA KEYS
NATIONAL WEATHER SERVICE KEY WEST FLORIDA
1200 AM EDT SUN AUG 02 2015

...SOUTH FLORIDA AND THE KEYS...

CITY           SKY/WX    TMP DP  RH WIND       PRES   REMARKS
FORT MYERS     CLOUDY    83  77  82 CALM      29.99R HX  92
SW REGIONAL AP CLOUDY    82  78  88 S3        30.00R HX  91
NAPLES         CLOUDY    85  79  82 SE3       30.00R HX  98
MIAMI          MOCLDY    83  72  69 SE7       30.00F
WEST KENDALL   MOCLDY    83  75  77 SE3       30.00F HX  90
HOMESTEAD      MOCLDY    82  75  79 SE5       30.00F
MARATHON       MOCLDY    86  78  77 SE9       29.99F HX  98
BOCA CHICA NAS PTCLDY    85  75  72 SE6       30.00F HX  93
KEY WEST INTL  PTCLDY    86  74  67 SE7       30.00F HX  94

...INTERNATIONAL WEATHER...

CITY           SKY/WX    TMP DP  RH WIND       PRES   REMARKS
NASSAU BAHAMAS NOT AVBL
CANCUN MEXICO  PTCLDY    82  77  83 E6        29.98S HX  91
COZUMEL MEXICO PTCLDY    73  73 100 CALM      29.98S

ADJACENT COASTAL WATERS...

STATION/POSITION TIME  SKY/WX   TEMP    WIND        PRES    WAVE
                                AIR SEA DIR/SP/G            HT/PER
                 (UTC)          (F)     (DEG/KT/KT) (MB)    (FT/S)
PULASKI SHOAL LI 0300            85     160/  2/  3 1015.8R
SAND KEY         0350            85     140/  7/  9 1015.8F
SOMBRERO KEY     0400            85     150/ 16/ 17 1016.4F
LONG KEY         0300            86 89  150/ 13/ 14 1016.9R
MOLASSES REEF    0400            85 87  120/ 10/ 11 1016.0F
FOWEY ROCKS      NOT AVBL

$$



USA.gov is the U.S. government's official web portal to all federal, state and local government web resources and services.